Weather History for Oxford, NC

Change the Weather History Date:

Tuesday, August 20, 2013

  Actual Average (KTDF) Record (KTDF)
Temperature  
Mean Temperature 72 °F -  
Max Temperature 80 °F 85 °F 98 °F (2002)
Min Temperature 63 °F 63 °F 52 °F (1977)
Cooling Degree Days 6    
Growing Degree Days 22 (Base 50)    
Moisture  
Dew Point 67 °F    
Average Humidity 84    
Maximum Humidity 97    
Minimum Humidity 62    
Precipitation  
Precipitation 0.01 in - - ()
Sea Level Pressure  
Sea Level Pressure 30.17 in    
Wind  
Wind Speed 0 mph (East)    
Max Wind Speed 4 mph    
Max Gust Speed -    
Visibility 7 miles    
Events Fog    
Averages and records for this station are not official NWS values.
T = Trace of Precipitation, MM = Missing Value Source: NWS Daily Summary

Daily Weather History Graph

Daily Weather History Graph

Search for Another Location

Airport:

Trip Planner

Search our weather history database for the weather conditions in past years. The results will help you decide how hot, cold, wet, or windy it might be!

Date:

Astronomy

Aug. 20, 2013 Rise Set
Actual Time 6:36 AM EDT 7:58 PM EDT
Civil Twilight 6:09 AM EDT 8:24 PM EDT
Nautical Twilight 5:36 AM EDT 8:57 PM EDT
Astronomical Twilight 5:02 AM EDT 9:30 PM EDT
Moon 7:30 PM EDT (8/20) 6:03 AM EDT (8/20)
Length of Visible Light 14h 15m
Length of Day
13h 21m
Full, 100% of the Moon is Illuminated
Aug 20
Full
Aug 20
Full
Aug 28
Last Quarter
Sep 5
New
Sep 12
First Quarter

Hourly Weather History & Observations

Time (EDT) Temp. Heat Index Dew Point Humidity Pressure Visibility Wind Dir Wind Speed Gust Speed Precip Events Conditions
12:15 AM 67.5 °F - 66.2 °F 96% 30.16 in 0.5 mi Calm Calm - N/A Fog Fog
12:35 AM 66.6 °F - 65.3 °F 96% 30.16 in 0.2 mi Calm Calm - N/A Fog Fog
12:55 AM 67.8 °F - 66.4 °F 95% 30.16 in 0.2 mi Calm Calm - N/A Fog Fog
1:15 AM 67.3 °F - 66.0 °F 96% 30.15 in 0.2 mi Calm Calm - N/A Fog Fog
1:35 AM 67.1 °F - 65.7 °F 95% 30.14 in 0.2 mi Calm Calm - N/A Fog Fog
1:55 AM 66.2 °F - 65.1 °F 96% 30.14 in 0.2 mi Calm Calm - N/A Fog Fog
2:15 AM 66.9 °F - 65.5 °F 95% 30.14 in 0.2 mi Calm Calm - N/A Fog Fog
2:35 AM 66.4 °F - 65.3 °F 96% 30.13 in 0.2 mi Calm Calm - N/A Fog Fog
2:55 AM 66.2 °F - 64.9 °F 96% 30.13 in 0.5 mi Calm Calm - N/A Fog Fog
3:15 AM 65.7 °F - 64.4 °F 96% 30.13 in 1.0 mi Calm Calm - N/A   Mostly Cloudy
3:35 AM 65.1 °F - 63.9 °F 96% 30.13 in 0.5 mi Calm Calm - N/A Fog Fog
3:55 AM 65.3 °F - 63.9 °F 95% 30.13 in 0.5 mi Calm Calm - N/A Fog Fog
4:15 AM 64.8 °F - 63.5 °F 96% 30.13 in 0.8 mi Calm Calm - N/A   Mist
4:35 AM 64.6 °F - 63.5 °F 96% 30.13 in 1.0 mi Calm Calm - N/A   Mist
4:55 AM 65.8 °F - 64.6 °F 96% 30.13 in 2.5 mi West 3.5 mph - N/A   Clear
5:15 AM 66.4 °F - 65.3 °F 96% 30.13 in 7.0 mi Calm Calm - N/A   Clear
5:35 AM 64.6 °F - 63.5 °F 96% 30.13 in 4.0 mi Calm Calm - 0.01 in   Clear
5:55 AM 64.4 °F - 63.1 °F 96% 30.13 in 5.0 mi Calm Calm - 0.01 in   Clear
6:15 AM 63.9 °F - 62.8 °F 96% 30.14 in 5.0 mi Calm Calm - N/A   Clear
6:35 AM 64.6 °F - 63.3 °F 96% 30.15 in 1.8 mi Calm Calm - N/A   Mist
6:55 AM 64.6 °F - 63.5 °F 96% 30.16 in 2.5 mi Calm Calm - N/A   Clear
7:15 AM 64.4 °F - 63.5 °F 97% 30.16 in 2.5 mi Calm Calm - N/A   Clear
7:35 AM 65.1 °F - 63.9 °F 96% 30.16 in 4.0 mi Calm Calm - N/A   Clear
7:55 AM 67.1 °F - 65.7 °F 95% 30.17 in 5.0 mi Calm Calm - N/A   Clear
8:15 AM 67.6 °F - 66.4 °F 96% 30.17 in 7.0 mi Calm Calm - N/A   Clear
8:35 AM 68.7 °F - 67.3 °F 95% 30.17 in 10.0 mi Calm Calm - N/A   Clear
8:55 AM 69.3 °F - 68.0 °F 96% 30.18 in 10.0 mi Calm Calm - N/A   Clear
9:15 AM 70.2 °F - 68.9 °F 96% 30.19 in 10.0 mi Calm Calm - N/A   Clear
9:35 AM 70.9 °F - 69.6 °F 96% 30.19 in 10.0 mi Calm Calm - N/A   Clear
9:55 AM 72.5 °F - 70.7 °F 94% 30.19 in 10.0 mi Calm Calm - N/A   Clear
10:15 AM 73.8 °F - 68.2 °F 83% 30.19 in 10.0 mi Calm Calm - N/A   Clear
10:35 AM 74.7 °F - 67.6 °F 79% 30.19 in 10.0 mi Calm Calm - N/A   Clear
10:55 AM 74.8 °F - 67.3 °F 77% 30.20 in 10.0 mi Calm Calm - N/A   Scattered Clouds
11:15 AM 75.7 °F - 66.6 °F 73% 30.21 in 10.0 mi Calm Calm - N/A   Mostly Cloudy
11:35 AM 75.9 °F - 66.6 °F 73% 30.21 in 10.0 mi Calm Calm - N/A   Overcast
11:55 AM 76.8 °F - 66.7 °F 71% 30.21 in 10.0 mi Calm Calm - N/A   Mostly Cloudy
12:15 PM 77.7 °F - 66.4 °F 68% 30.21 in 10.0 mi SSE 3.5 mph - N/A   Scattered Clouds
12:35 PM 78.4 °F - 66.0 °F 66% 30.22 in 10.0 mi Calm Calm - N/A   Scattered Clouds
12:55 PM 78.8 °F - 66.6 °F 66% 30.21 in 10.0 mi SE 3.5 mph - N/A   Scattered Clouds
1:15 PM 79.7 °F - 66.6 °F 64% 30.21 in 10.0 mi SSW 3.5 mph - N/A   Scattered Clouds
1:35 PM 79.5 °F - 66.0 °F 63% 30.21 in 10.0 mi Calm Calm - N/A   Mostly Cloudy
1:55 PM 79.2 °F - 64.9 °F 62% 30.20 in 10.0 mi Calm Calm - N/A   Mostly Cloudy
2:15 PM 79.3 °F - 65.1 °F 62% 30.20 in 10.0 mi Calm Calm - N/A   Scattered Clouds
2:35 PM 79.2 °F - 65.5 °F 63% 30.19 in 10.0 mi Calm Calm - N/A   Mostly Cloudy
2:55 PM 78.8 °F - 66.0 °F 65% 30.19 in 10.0 mi Calm Calm - N/A   Overcast
3:15 PM 78.8 °F - 66.0 °F 65% 30.19 in 10.0 mi Calm Calm - N/A   Overcast
3:35 PM 79.3 °F - 66.7 °F 65% 30.18 in 10.0 mi Calm Calm - N/A   Overcast
3:55 PM 79.9 °F - 67.1 °F 65% 30.17 in 10.0 mi Calm Calm - N/A   Overcast
4:15 PM 79.7 °F - 67.3 °F 66% 30.16 in 10.0 mi NNE 3.5 mph - N/A   Mostly Cloudy
4:35 PM 79.3 °F - 67.1 °F 66% 30.16 in 10.0 mi Calm Calm - N/A   Scattered Clouds
4:55 PM 80.4 °F 83.0 °F 67.8 °F 65% 30.16 in 10.0 mi ENE 3.5 mph - N/A   Scattered Clouds
5:15 PM 79.7 °F - 67.1 °F 65% 30.16 in 10.0 mi Calm Calm - N/A   Scattered Clouds
5:35 PM 80.2 °F 82.6 °F 67.3 °F 64% 30.16 in 10.0 mi Calm Calm - N/A   Clear
5:55 PM 79.7 °F - 68.2 °F 68% 30.16 in 10.0 mi NE 3.5 mph - N/A   Scattered Clouds
6:15 PM 79.3 °F - 68.2 °F 69% 30.16 in 10.0 mi Calm Calm - N/A   Scattered Clouds
6:35 PM 79.2 °F - 67.8 °F 68% 30.16 in 10.0 mi East 3.5 mph - N/A   Clear
6:55 PM 78.8 °F - 68.7 °F 71% 30.16 in 10.0 mi Calm Calm - N/A   Clear
7:15 PM 77.9 °F - 69.8 °F 76% 30.16 in 10.0 mi Calm Calm - N/A   Scattered Clouds
7:35 PM 77.5 °F - 68.9 °F 75% 30.16 in 10.0 mi Calm Calm - N/A   Scattered Clouds
7:55 PM 75.4 °F - 70.3 °F 84% 30.17 in 10.0 mi Calm Calm - N/A   Clear
8:15 PM 74.3 °F - 70.9 °F 89% 30.17 in 10.0 mi Calm Calm - N/A   Clear
8:35 PM 74.8 °F - 70.5 °F 86% 30.18 in 10.0 mi Calm Calm - N/A   Clear
8:55 PM 74.5 °F - 70.9 °F 88% 30.18 in 10.0 mi Calm Calm - N/A   Clear
9:15 PM 73.0 °F - 70.7 °F 92% 30.19 in 10.0 mi Calm Calm - N/A   Clear
9:35 PM 73.6 °F - 71.1 °F 92% 30.19 in 10.0 mi Calm Calm - N/A   Clear
9:55 PM 72.7 °F - 70.3 °F 92% 30.19 in 10.0 mi Calm Calm - N/A   Clear
10:15 PM 72.5 °F - 70.7 °F 94% 30.19 in 10.0 mi Calm Calm - N/A   Clear
10:35 PM 72.3 °F - 70.5 °F 94% 30.19 in 7.0 mi Calm Calm - N/A   Clear
10:55 PM 73.4 °F - 70.7 °F 91% 30.19 in 10.0 mi Calm Calm - N/A   Clear
11:15 PM 72.9 °F - 70.7 °F 93% 30.19 in 10.0 mi Calm Calm - N/A   Clear
11:35 PM 72.9 °F - 69.8 °F 90% 30.20 in 10.0 mi Calm Calm - N/A   Clear
11:55 PM 72.3 °F - 70.3 °F 93% 30.20 in 10.0 mi Calm Calm - N/A   Clear